STARLINK-33983, 63948

Orbit data source: Space-Track

STARLINK-33983, 63948 is a payload satellite owned by SpaceX/Seattle (US) in LEO that was launched on Tue, 13 May 2025 UTC via an FALCON 9 launch vehicle from the Air Force Western Test Range (AFWTR). Payload-class satellites include a variety of spacecraft equipped with specific instruments for various scientific and technological missions. These include communications satellites like Starlink; space stations such as the ISS; scientific satellites like the Hubble; Earth observation satellites from companies like Planet Labs, Umbra, and HawkEye 360; GPS; miniature CubeSats for education and research; and military/defense satellites.

Loading next visibility...
Identifier
63948, 2025-098Y
Orbit
LEO
Country
Flag of USUS
Related business
Manufacturer
SpaceX/Seattle
Mission
Operational Commercial Communications
Bus & Motor
STARLINK V2MO, Unknown motor
Mass
575 kg wet, ~530 kg dry
Launch date (UTC)
2025-05-13 (1 year ago)
Launch vehicle
FALCON 9
Launch site
Air Force Western Test Range (AFWTR)
Object type
Payload
Rocket body
Debris
Shape & HBR
Box + 2 Pan, 17.7 m
Radar Cross Section
36.964 m², Large (>1 m²)

Expand to show TLE details & history
Last TLE update: 1 day ago

TLE from 1 day ago
0 STARLINK-33983
1 63948U 25098Y   26170.96919248  .00004439  00000-0  37874-3 0  9990
2 63948  70.0018  16.5413 0003759 258.5208 101.5529 14.98418605 61873
Epoch: 2026-06-19T23:15Z
TLE epoch observation values (Epoch: 2026-06-19T23:15:38.230Z)
Latitude
-0.00002°
Longitude
119.44145°
Altitude
574.73 km
Speed
7.573 km/s
True Right ascension
01h 06m 09s
True Declination
0° 00' 00"
Sunlit
Object was in daylight at epoch
Visualization orbit readout
Latitude
Unknown
Longitude
Unknown
Altitude
Unknown
Speed
Unknown
Apparent Right ascension
Unknown
Apparent Declination
Unknown
Sunlit
N/A
Visualization observer readout
Local Sidereal Time
10:20:21
Azimuth
Unknown
Elevation
Unknown
Doppler factor
Unknown
Orbital elements
Apogee altitude
572.342 km
Perigee altitude
567.118 km
Semi-major axis
6,947.867 km
Eccentricity
0.00038
Inclination
70.0018°
RAAN
16.5413°
Arg. of periapsis
258.5208°
True anomaly
101.5951°
Mean anomaly
101.5529°
Eccentric anomaly
101.574°
Mean motion
3.74771 °/min
Orbital period
96.06 mins
BSTAR
0.00037874
Loading maneuver chart data...
Computing Atmospheric mass density...
Loading historical data...
Loading historical data...
Loading historical data...
Loading historical data...
Loading historical data...
Loading historical data...
Loading historical data...

Documentation

Showing up to 5 results
|